KJ7AZ-3 Weather Reports


time (UTC)temp
F
wind
direction
speed
knots
gust
knots
rain 1hr
in
rain 24hr
in
rain mn
in
humidity
%
barometer
mb
20260510104648 60 122 0.9 0.0 0.00 0.00 0.00
20260510103149 58 193 0.0 0.0 0.00 0.00 0.00
20260510101649 58 82 0.0 0.0 0.00 0.00 0.00
20260510100150 59 82 0.0 0.0 0.00 0.00 0.00
20260510094651 60 82 0.0 0.0 0.00 0.00 0.00
20260510093152 60 125 1.7 0.0 0.00 0.00 0.00
20260510091652 57 115 0.0 0.0 0.00 0.00 0.00
20260510090153 56 159 0.0 0.0 0.00 0.00 0.00
20260510084654 57 159 0.0 0.0 0.00 0.00 0.00
20260510083154 60 159 0.0 0.0 0.00 0.00 0.00
20260510081655 61 159 0.0 0.0 0.00 0.00 0.00
20260510074656 63 152 0.0 0.0 0.00 0.00 0.00
20260510073157 63 152 0.0 0.0 0.00 0.00 0.00
20260510071657 63 152 0.0 0.0 0.00 0.00 0.00
20260510070158 65 152 0.0 0.0 0.00 0.00 0.00
20260510064658 66 152 0.0 0.0 0.00 0.00 0.00
20260510063159 65 219 0.0 0.0 0.00 0.00 0.00
20260510061659 67 62 0.0 0.0 0.00 0.00 0.00
20260510060159 67 62 0.0 0.0 0.00 0.00 0.00
20260510054700 65 62 0.0 0.0 0.00 0.00 0.00
20260510053200 65 62 0.0 0.0 0.00 0.00 0.00
20260510051700 66 62 0.0 0.0 0.00 0.00 0.00
20260510050201 67 62 0.0 0.0 0.00 0.00 0.00
20260510040203 73 162 9.6 7.0 0.00 0.00 0.00
20260510034702 74 125 2.6 2.6 0.00 0.00 0.00
20260510031703 74 239 0.9 0.9 0.00 0.00 0.00
20260510030202 75 232 3.5 5.2 0.00 0.00 0.00
20260510023202 75 233 1.7 2.6 0.00 0.00 0.00
20260510020202 75 238 1.7 0.0 0.00 0.00 0.00
20260510014702 75 187 0.0 0.0 0.00 0.00 0.00
20260510013203 76 233 2.6 1.7 0.00 0.00 0.00
20260510011702 78 245 0.0 0.0 0.00 0.00 0.00
20260510004701 80 166 0.9 0.9 0.00 0.00 0.00
20260510003200 81 195 3.5 7.0 0.00 0.00 0.00
20260510001700 84 231 6.1 3.5 0.00 0.00 0.00
20260509234659 87 263 1.7 0.0 0.00 0.00 0.00
20260509233159 87 271 1.7 0.9 0.00 0.00 0.00
20260509231659 83 250 4.3 2.6 0.00 0.00 0.00
20260509230158 85 248 5.2 7.0 0.00 0.00 0.00
20260509224659 87 170 0.9 0.9 0.00 0.00 0.00
20260509223158 83 221 4.3 7.0 0.00 0.00 0.00
20260509221657 87 198 0.9 8.7 0.00 0.00 0.00
20260509220157 88 194 3.5 5.2 0.00 0.00 0.00
20260509214657 87 250 6.1 7.0 0.00 0.00 0.00
20260509213157 85 267 3.5 3.5 0.00 0.00 0.00
20260509211656 86 256 7.0 7.0 0.00 0.00 0.00
20260509210156 89 197 3.5 5.2 0.00 0.00 0.00
20260509204656 86 155 7.0 8.7 0.00 0.00 0.00
20260509203155 83 240 1.7 2.6 0.00 0.00 0.00
20260509201655 86 252 0.9 0.0 0.00 0.00 0.00
20260509200155 87 259 7.0 4.3 0.00 0.00 0.00
20260509194655 83 231 4.3 5.2 0.00 0.00 0.00
20260509193155 88 240 12.2 6.1 0.00 0.00 0.00
20260509191655 86 304 5.2 4.3 0.00 0.00 0.00
20260509190155 83 290 2.6 0.9 0.00 0.00 0.00
20260509184655 84 321 5.2 4.3 0.00 0.00 0.00
20260509183156 83 27 7.0 1.7 0.00 0.00 0.00
20260509181656 82 325 3.5 5.2 0.00 0.00 0.00
20260509180157 82 311 3.5 5.2 0.00 0.00 0.00
20260509174657 81 15 2.6 4.3 0.00 0.00 0.00
20260509173157 79 315 0.9 5.2 0.00 0.00 0.00
20260509171658 79 325 0.9 2.6 0.00 0.00 0.00
20260509170158 79 273 3.5 4.3 0.00 0.00 0.00
20260509164659 79 42 1.7 0.0 0.00 0.00 0.00
20260509163200 77 276 3.5 4.3 0.00 0.00 0.00
20260509161702 75 240 0.0 0.0 0.00 0.00 0.00
20260509160202 76 304 4.3 4.3 0.00 0.00 0.00
20260509154702 74 259 1.7 2.6 0.00 0.00 0.00
20260509153203 73 287 2.6 1.7 0.00 0.00 0.00
20260509151706 73 262 1.7 4.3 0.00 0.00 0.00
20260509150205 71 295 2.6 3.5 0.00 0.00 0.00
20260509144706 70 290 0.0 0.0 0.00 0.00 0.00
20260509143208 68 228 0.0 0.0 0.00 0.00 0.00
20260509141710 66 228 0.0 0.0 0.00 0.00 0.00
20260509140210 66 166 0.0 0.0 0.00 0.00 0.00
20260509134711 67 166 0.0 0.0 0.00 0.00 0.00
20260509133213 63 340 0.0 0.0 0.00 0.00 0.00
20260509131714 64 340 0.0 0.0 0.00 0.00 0.00
20260509130215 62 340 0.0 0.0 0.00 0.00 0.00
20260509124717 58 340 0.0 0.0 0.00 0.00 0.00
20260509123218 52 340 0.0 0.0 0.00 0.00 0.00
20260509121719 48 340 0.0 0.0 0.00 0.00 0.00
20260509120220 48 340 0.0 0.0 0.00 0.00 0.00
20260509114722 49 340 0.0 0.0 0.00 0.00 0.00
20260509113225 49 340 0.0 0.0 0.00 0.00 0.00
20260509111724 47 340 0.0 0.0 0.00 0.00 0.00